JIA9900 KMLB-KDAB

Flight info

Callsign JIA9900
Flight time N/A
Altitude 14000
Route MALET T208 SMYRA
Aircraft CRJ9/M-SDFGIRWY/S

Departure

Time 2026-04-23 17:11
Airport Melbourne Orlando International Airport (KMLB)

Arrival

Time N/A
Airport Daytona Beach International Airport (KDAB)
Time Latitude Longitude Altitude Speed Heading
2026-04-23 16:42 28.09937 -80.63059 30 ft 0 kts 209°
2026-04-23 16:57 28.09946 -80.63053 30 ft 4 kts 209°
2026-04-23 16:58 28.09966 -80.63042 30 ft 4 kts 195°
2026-04-23 16:58 28.09983 -80.63046 30 ft 4 kts 124°
2026-04-23 16:58 28.09990 -80.63071 30 ft 4 kts 100°
2026-04-23 16:58 28.09995 -80.63100 29 ft 4 kts 100°
2026-04-23 16:59 28.09999 -80.63126 30 ft 4 kts 98°
2026-04-23 16:59 28.09995 -80.63152 30 ft 4 kts 54°
2026-04-23 16:59 28.09978 -80.63171 29 ft 4 kts 42°
2026-04-23 16:59 28.09972 -80.63177 30 ft 0 kts 42°
2026-04-23 17:01 28.09977 -80.63172 29 ft 3 kts 43°
2026-04-23 17:02 28.09995 -80.63139 30 ft 9 kts 77°
2026-04-23 17:02 28.10012 -80.63091 29 ft 4 kts 44°
2026-04-23 17:02 28.10043 -80.63073 28 ft 1 kts 18°
2026-04-23 17:02 28.10061 -80.63066 28 ft 5 kts 18°
2026-04-23 17:03 28.10121 -80.63036 27 ft 17 kts 35°
2026-04-23 17:03 28.10174 -80.62993 27 ft 0 kts 29°
2026-04-23 17:04 28.10178 -80.62990 27 ft 3 kts 29°
2026-04-23 17:04 28.10246 -80.62974 29 ft 10 kts 349°
2026-04-23 17:04 28.10274 -80.62998 30 ft 9 kts 298°
2026-04-23 17:05 28.10276 -80.63030 30 ft 2 kts 236°
2026-04-23 17:05 28.10240 -80.63041 30 ft 10 kts 179°
2026-04-23 17:05 28.10184 -80.63058 30 ft 3 kts 230°
2026-04-23 17:05 28.10179 -80.63073 30 ft 3 kts 268°
2026-04-23 17:06 28.10181 -80.63123 33 ft 3 kts 252°
2026-04-23 17:06 28.10123 -80.63194 35 ft 19 kts 223°
2026-04-23 17:06 28.10103 -80.63276 33 ft 21 kts 278°
2026-04-23 17:06 28.10109 -80.63465 27 ft 27 kts 268°
2026-04-23 17:07 28.10102 -80.63686 31 ft 31 kts 267°
2026-04-23 17:07 28.10093 -80.63940 30 ft 30 kts 266°
2026-04-23 17:07 28.10081 -80.64172 34 ft 29 kts 267°
2026-04-23 17:07 28.10070 -80.64410 32 ft 31 kts 266°
2026-04-23 17:08 28.10059 -80.64659 34 ft 32 kts 267°
2026-04-23 17:08 28.10049 -80.64917 31 ft 34 kts 267°
2026-04-23 17:08 28.10037 -80.65181 33 ft 34 kts 267°
2026-04-23 17:08 28.10024 -80.65453 34 ft 35 kts 267°
2026-04-23 17:09 28.10011 -80.65725 37 ft 35 kts 266°
2026-04-23 17:09 28.09998 -80.65984 40 ft 25 kts 266°
2026-04-23 17:09 28.10023 -80.66091 39 ft 9 kts 332°
2026-04-23 17:09 28.10104 -80.66101 37 ft 8 kts 359°
2026-04-23 17:10 28.10138 -80.66067 36 ft 12 kts 75°
2026-04-23 17:10 28.10138 -80.65880 35 ft 29 kts 88°
2026-04-23 17:10 28.10162 -80.65435 34 ft 94 kts 87°
2026-04-23 17:10 28.10211 -80.64446 83 ft 152 kts 86°
2026-04-23 17:11 28.10263 -80.63194 802 ft 152 kts 88°
2026-04-23 17:11 28.10284 -80.62034 1726 ft 151 kts 87°
2026-04-23 17:11 28.10354 -80.60810 2382 ft 161 kts 81°
2026-04-23 17:11 28.11019 -80.59782 2973 ft 176 kts 27°
2026-04-23 17:12 28.12355 -80.59692 3579 ft 211 kts 350°
2026-04-23 17:12 28.13887 -80.59998 4483 ft 234 kts 353°
2026-04-23 17:12 28.15527 -80.60465 5446 ft 253 kts 339°
2026-04-23 17:12 28.17173 -80.61306 6449 ft 267 kts 334°
2026-04-23 17:13 28.18872 -80.62264 7492 ft 277 kts 334°
2026-04-23 17:13 28.20611 -80.63236 8945 ft 282 kts 334°
2026-04-23 17:13 28.22398 -80.64232 10384 ft 291 kts 334°
2026-04-23 17:13 28.24240 -80.65244 11773 ft 298 kts 335°
2026-04-23 17:14 28.26146 -80.66275 12913 ft 314 kts 334°
2026-04-23 17:14 28.28214 -80.67377 13521 ft 340 kts 334°
2026-04-23 17:14 28.30353 -80.68499 13785 ft 338 kts 334°
2026-04-23 17:14 28.32509 -80.69609 13904 ft 343 kts 335°
2026-04-23 17:15 28.34701 -80.70723 13956 ft 348 kts 335°
2026-04-23 17:15 28.09937 -80.63059 13964 ft 0 kts 209°
2026-04-23 17:22 28.09966 -80.63040 30 ft 4 kts 216°
2026-04-23 17:23 28.09977 -80.62992 30 ft 4 kts 281°
2026-04-23 17:23 28.09975 -80.62981 30 ft 0 kts 281°
2026-04-23 17:25 28.09987 -80.63053 29 ft 13 kts 281°
2026-04-23 17:25 28.10046 -80.63190 31 ft 24 kts 310°
2026-04-23 17:26 28.10107 -80.63528 27 ft 24 kts 267°
2026-04-23 17:26 28.10092 -80.63977 30 ft 42 kts 266°
2026-04-23 17:27 28.10058 -80.64668 33 ft 49 kts 267°
2026-04-23 17:27 28.10044 -80.65042 32 ft 47 kts 266°
2026-04-23 17:27 28.10026 -80.65431 33 ft 52 kts 267°
2026-04-23 17:27 28.10006 -80.65827 38 ft 41 kts 267°
2026-04-23 17:28 28.09995 -80.66044 40 ft 17 kts 278°
2026-04-23 17:28 28.10047 -80.66095 39 ft 9 kts 351°
2026-04-23 17:28 28.10127 -80.66083 36 ft 7 kts 54°
2026-04-23 17:28 28.10141 -80.65932 35 ft 44 kts 87°
2026-04-23 17:29 28.10168 -80.65340 34 ft 105 kts 87°
2026-04-23 17:29 28.10217 -80.64331 32 ft 150 kts 86°
2026-04-23 17:29 28.10314 -80.61865 1117 ft 153 kts 89°
2026-04-23 17:30 28.10486 -80.60653 1524 ft 166 kts 57°
2026-04-23 17:30 28.12711 -80.60012 2685 ft 181 kts 357°
2026-04-23 17:30 28.13975 -80.60128 3398 ft 186 kts 359°
2026-04-23 17:31 28.15295 -80.60263 3996 ft 196 kts 352°
2026-04-23 17:31 28.16652 -80.60726 4515 ft 217 kts 340°
2026-04-23 17:31 28.18121 -80.61433 5026 ft 241 kts 337°
2026-04-23 17:31 28.19705 -80.62261 5910 ft 258 kts 336°
2026-04-23 17:32 28.21374 -80.63150 7004 ft 272 kts 335°